EW1296 Weather Reports


time (UTC)temp
C
wind
direction
speed
KPH
gust
KPH
rain 1hr
cm
rain 24hr
cm
rain mn
cm
humidity
%
barometer
mb
20260510161515 18 270 3.2 9.7 0.00 0.46 0.03 77 1013.6
20260510161015 18 225 3.2 9.7 0.00 0.46 0.03 77 1013.6
20260510160515 18 225 3.2 11.3 0.00 0.46 0.03 77 1013.7
20260510160015 17 248 3.2 8.0 0.00 0.46 0.03 79 1013.8
20260510155515 17 158 1.6 8.0 0.00 0.46 0.03 80 1013.7
20260510155015 17 0.0 4.8 0.00 0.46 0.03 82 1013.9
20260510154515 17 0.0 4.8 0.00 0.46 0.03 83 1013.9
20260510154015 16 225 3.2 9.7 0.00 0.46 0.03 83 1013.9
20260510153515 16 225 3.2 8.0 0.00 0.46 0.03 84 1014.0
20260510153036 16 0.0 8.0 0.00 0.46 0.03 86 1014.0
20260510152516 16 135 1.6 6.4 0.00 0.46 0.03 86 1014.0
20260510152016 16 0.0 4.8 0.00 0.46 0.03 87 1013.9
20260510151515 16 0.0 6.4 0.00 0.46 0.03 89 1014.0
20260510151036 16 225 1.6 8.0 0.00 0.46 0.03 89 1014.0
20260510150517 15 225 3.2 8.0 0.00 0.46 0.03 90 1014.0
20260510150015 15 0.0 4.8 0.00 0.46 0.03 91 1014.0
20260510145515 15 0.0 6.4 0.00 0.46 0.03 91 1013.9
20260510145057 15 0.0 6.4 0.00 0.46 0.03 92 1013.9
20260510144516 15 248 1.6 4.8 0.00 0.46 0.03 92 1013.8
20260510144015 15 225 3.2 9.7 0.00 0.46 0.03 93 1013.8
20260510143515 14 0.0 4.8 0.00 0.46 0.03 93 1013.9
20260510143015 14 248 1.6 4.8 0.00 0.46 0.03 93 1013.9
20260510142515 14 248 1.6 4.8 0.00 0.46 0.03 93 1013.9
20260510142016 14 225 1.6 6.4 0.00 0.46 0.03 93 1013.9
20260510141535 13 225 1.6 6.4 0.00 0.46 0.03 93 1013.8
20260510141015 13 225 1.6 6.4 0.00 0.46 0.03 94 1013.8
20260510140517 13 225 1.6 6.4 0.00 0.46 0.03 94 1013.7
20260510140017 13 225 4.8 9.7 0.00 0.46 0.03 94 1013.7
20260510135519 13 0.0 3.2 0.00 0.46 0.03 94 1013.6
20260510135018 13 225 1.6 6.4 0.00 0.46 0.03 94 1013.6
20260510134518 13 225 1.6 8.0 0.00 0.46 0.03 94 1013.6
20260510134018 13 225 4.8 8.0 0.00 0.46 0.03 94 1013.7
20260510133518 13 225 3.2 11.3 0.00 0.46 0.03 94 1013.8
20260510133040 13 248 4.8 8.0 0.00 0.46 0.03 94 1013.7
20260510132518 13 225 3.2 12.9 0.00 0.46 0.03 95 1013.6
20260510132017 13 225 3.2 12.9 0.00 0.46 0.03 95 1013.5
20260510131518 13 0.0 3.2 0.00 0.46 0.03 95 1013.3
20260510131017 13 135 1.6 4.8 0.00 0.46 0.03 95 1013.2
20260510130537 13 113 1.6 4.8 0.00 0.46 0.03 95 1013.2
20260510130017 12 135 1.6 6.4 0.00 0.46 0.03 95 1013.2
20260510125517 12 135 1.6 6.4 0.00 0.46 0.03 95 1013.1
20260510125018 12 113 3.2 11.3 0.00 0.46 0.03 95 1013.1
20260510124517 12 0.0 3.2 0.00 0.46 0.03 95 1013.1
20260510124017 12 0.0 3.2 0.00 0.46 0.03 95 1013.2
20260510123518 12 0.0 0.0 0.00 0.46 0.03 95 1013.2
20260510123017 12 0.0 4.8 0.00 0.46 0.03 95 1013.1
20260510122517 12 0.0 1.6 0.00 0.46 0.03 95 1013.1
20260510122038 12 0.0 4.8 0.00 0.46 0.03 95 1013.0
20260510121518 12 135 1.6 6.4 0.00 0.46 0.03 95 1013.0
20260510121015 12 0.0 3.2 0.00 0.46 0.03 96 1013.0
20260510120518 12 135 1.6 6.4 0.00 0.46 0.03 95 1012.9
20260510120017 12 135 1.6 3.2 0.00 0.46 0.03 95 1012.9
20260510115517 12 135 1.6 6.4 0.00 0.46 0.03 95 1012.7
20260510115037 12 0.0 4.8 0.00 0.46 0.03 96 1012.7
20260510114517 12 0.0 4.8 0.00 0.46 0.03 95 1012.7
20260510114018 12 0.0 4.8 0.00 0.46 0.03 96 1012.7
20260510113517 12 135 1.6 4.8 0.00 0.46 0.03 95 1012.6
20260510113017 12 113 3.2 6.4 0.00 0.46 0.03 95 1012.5
20260510112517 12 113 3.2 8.0 0.00 0.46 0.03 95 1012.4
20260510112017 12 113 3.2 8.0 0.00 0.46 0.03 96 1012.3
20260510111517 12 135 3.2 11.3 0.00 0.46 0.03 95 1012.3
20260510111017 12 113 1.6 9.7 0.00 0.46 0.03 95 1012.2
20260510110538 12 113 1.6 6.4 0.00 0.46 0.03 95 1012.0
20260510110017 12 113 4.8 11.3 0.00 0.46 0.03 95 1012.0
20260510105518 12 113 3.2 9.7 0.00 0.46 0.03 95 1012.0
20260510105017 12 0.0 3.2 0.00 0.46 0.03 96 1012.1
20260510104518 12 23 1.6 6.4 0.00 0.46 0.03 95 1012.2
20260510104017 12 23 3.2 8.0 0.00 0.46 0.03 95 1012.2
20260510103517 12 68 1.6 6.4 0.00 0.46 0.03 95 1012.1
20260510103038 12 68 1.6 6.4 0.00 0.46 0.03 95 1012.1
20260510102517 12 0.0 4.8 0.00 0.46 0.03 95 1011.9
20260510102017 12 68 1.6 6.4 0.00 0.46 0.03 95 1011.8
20260510101518 12 90 1.6 8.0 0.00 0.46 0.03 95 1012.0
20260510101038 12 90 1.6 6.4 0.00 0.46 0.03 95 1012.0
20260510100517 12 45 1.6 6.4 0.00 0.46 0.03 95 1012.0
20260510100037 12 45 1.6 6.4 0.00 0.46 0.03 95 1011.9
20260510095517 12 45 1.6 8.0 0.00 0.46 0.03 95 1012.0
20260510095017 12 23 1.6 6.4 0.00 0.46 0.03 95 1011.9
20260510094517 12 45 3.2 9.7 0.00 0.46 0.03 95 1012.0
20260510094037 12 0.0 4.8 0.00 0.46 0.03 95 1012.1
20260510093518 12 0.0 4.8 0.00 0.46 0.03 95 1012.2
20260510093017 12 45 1.6 4.8 0.00 0.46 0.03 95 1012.2
20260510092517 12 0.0 4.8 0.00 0.46 0.03 95 1012.3
20260510092018 12 0.0 1.6 0.00 0.46 0.03 95 1012.3
20260510091517 12 0.0 4.8 0.00 0.46 0.03 95 1012.4
20260510091017 12 0.0 3.2 0.00 0.46 0.03 95 1012.3
20260510090557 12 45 1.6 8.0 0.00 0.46 0.03 95 1012.1
20260510090017 12 45 1.6 8.0 0.00 0.46 0.03 95 1012.2
20260510085517 12 23 1.6 4.8 0.00 0.46 0.03 95 1012.3
20260510085018 11 0 3.2 8.0 0.00 0.46 0.03 95 1012.4
20260510084538 11 0.0 4.8 0.00 0.46 0.03 95 1012.0
20260510084017 12 0.0 1.6 0.00 0.46 0.03 95 1011.8
20260510083517 12 0.0 4.8 0.00 0.46 0.03 95 1011.8
20260510083016 12 0.0 0.0 0.00 0.46 0.03 95 1011.7
20260510082517 12 0.0 0.0 0.00 0.46 0.03 95 1011.7
20260510082017 12 0.0 0.0 0.00 0.46 0.03 95 1011.6
20260510081517 12 0.0 4.8 0.00 0.46 0.03 95 1011.7
20260510081017 12 0.0 0.0 0.00 0.46 0.03 95 1011.6
20260510080517 12 0.0 0.0 0.00 0.46 0.03 95 1011.6
20260510080059 12 0.0 0.0 0.00 0.46 0.03 95 1011.5
20260510075518 12 0.0 1.6 0.00 0.46 0.03 95 1011.4
20260510075018 12 0.0 1.6 0.00 0.46 0.03 95 1011.4
20260510074517 12 0.0 0.0 0.00 0.46 0.03 95 1011.4
20260510074018 12 0.0 1.6 0.00 0.46 0.03 95 1011.3
20260510073537 12 0.0 1.6 0.00 0.46 0.03 95 1011.3
20260510073037 12 0.0 3.2 0.00 0.46 0.03 95 1011.4
20260510072518 12 0.0 6.4 0.00 0.46 0.03 95 1011.4
20260510072038 12 45 1.6 6.4 0.00 0.46 0.03 95 1011.3
20260510071538 12 0.0 3.2 0.00 0.46 0.03 94 1011.4
20260510071017 12 338 1.6 6.4 0.00 0.46 0.03 94 1011.4
20260510070517 12 0.0 3.2 0.00 0.46 0.03 94 1011.3
20260510070017 11 0.0 3.2 0.00 0.46 0.03 94 1011.3
20260510065517 11 0.0 3.2 0.00 0.46 0.03 94 1011.3
20260510065057 11 0.0 1.6 0.00 0.46 0.03 94 1011.2
20260510064539 11 0.0 1.6 0.03 0.46 0.03 94 1011.2
20260510064017 11 0.0 0.0 0.03 0.46 0.03 94 1011.1
20260510063517 11 0.0 1.6 0.03 0.46 0.03 94 1011.0
20260510063017 11 0.0 1.6 0.03 0.46 0.03 94 1011.0
20260510062516 11 0.0 1.6 0.03 0.46 0.03 94 1011.0
20260510062017 11 0.0 3.2 0.03 0.46 0.03 94 1011.1
20260510061516 11 0.0 1.6 0.03 0.46 0.03 94 1011.1
20260510061036 11 0.0 3.2 0.03 0.46 0.03 94 1011.1
20260510060518 12 0.0 1.6 0.03 0.46 0.03 94 1011.2
20260510060017 12 0.0 4.8 0.03 0.46 0.03 94 1011.2
20260510055538 12 0.0 3.2 0.03 0.46 0.03 94 1011.2
20260510055016 12 0.0 3.2 0.03 0.46 0.03 94 1011.3
20260510054517 12 0.0 0.0 0.00 0.43 0.00 94 1011.2
20260510054017 12 0.0 1.6 0.00 0.43 0.00 94 1011.2
20260510053516 12 0.0 1.6 0.00 0.43 0.00 94 1011.2
20260510053016 11 0.0 0.0 0.00 0.43 0.00 94 1011.3
20260510052517 12 0.0 3.2 0.00 0.43 0.00 94 1011.2
20260510052016 12 0.0 1.6 0.00 0.43 0.00 94 1011.2
20260510051516 12 0.0 1.6 0.00 0.43 0.00 94 1011.3
20260510051036 12 0.0 3.2 0.00 0.43 0.00 94 1011.3
20260510050516 12 0.0 1.6 0.00 0.43 0.00 94 1011.4
20260510050038 12 0.0 1.6 0.00 0.43 0.00 93 1011.4
20260510045516 12 0.0 0.0 0.00 0.43 0.00 93 1011.4
20260510045037 12 0.0 0.0 0.00 0.43 0.00 93 1011.5
20260510044517 12 0.0 0.0 0.00 0.43 0.00 93 1011.6
20260510044016 12 0.0 0.0 0.00 0.43 0.00 93 1011.6
20260510043516 12 0.0 0.0 0.00 0.43 0.00 93 1011.6
20260510043017 12 0.0 1.6 0.00 0.43 0.00 93 1011.6
20260510042518 12 0.0 0.0 0.00 0.43 0.00 93 1011.5
20260510042016 12 0.0 1.6 0.00 0.43 0.00 93 1011.4
20260510041517 12 0.0 3.2 0.00 0.43 0.00 93 1011.4
20260510041016 12 0.0 3.2 0.00 0.43 0.00 93 1011.4
20260510040517 12 0.0 1.6 0.00 0.43 0.00 93 1011.3
20260510040017 12 0.0 3.2 0.00 0.43 0.43 93 1011.3
20260510035518 12 0.0 4.8 0.00 0.43 0.43 92 1011.3
20260510035017 12 0.0 3.2 0.00 0.43 0.43 93 1011.2
20260510034517 12 0.0 1.6 0.00 0.43 0.43 93 1011.2
20260510034017 12 0.0 1.6 0.00 0.43 0.43 93 1011.2
20260510033518 12 0.0 3.2 0.00 0.43 0.43 93 1011.1
20260510033018 12 0.0 1.6 0.00 0.43 0.43 92 1011.0
20260510032517 12 0.0 3.2 0.00 0.43 0.43 92 1011.1
20260510032018 12 0.0 1.6 0.00 0.43 0.43 92 1011.2
20260510031517 12 0.0 3.2 0.00 0.43 0.43 92 1011.2
20260510031017 12 113 1.6 4.8 0.00 0.43 0.43 92 1011.2
20260510030517 12 113 3.2 6.4 0.00 0.43 0.43 92 1011.1
20260510030039 12 135 1.6 6.4 0.00 0.43 0.43 92 1011.1
20260510025537 12 0.0 3.2 0.00 0.43 0.43 92 1011.1
20260510025018 12 0.0 4.8 0.00 0.43 0.43 92 1011.1
20260510024617 12 0.0 0.0 0.00 0.43 0.43 92 1011.1
20260510024017 13 0.0 1.6 0.00 0.43 0.43 92 1011.1
20260510023518 13 0.0 1.6 0.00 0.43 0.43 92 1011.1
20260510023037 13 0.0 1.6 0.00 0.43 0.43 92 1011.3
20260510022517 13 0.0 3.2 0.00 0.43 0.43 92 1011.2
20260510022037 13 135 1.6 4.8 0.00 0.43 0.43 92 1011.2
20260510021517 13 0.0 3.2 0.00 0.43 0.43 91 1011.2
20260510021016 13 135 1.6 4.8 0.00 0.43 0.43 91 1011.2
20260510020538 13 0.0 1.6 0.00 0.43 0.43 91 1011.2
20260510020017 13 0.0 3.2 0.00 0.43 0.43 91 1011.1
20260510015517 13 0.0 1.6 0.00 0.43 0.43 91 1011.1
20260510015017 13 0.0 3.2 0.00 0.43 0.43 91 1011.1
20260510014558 13 0.0 1.6 0.00 0.43 0.43 91 1011.0
20260510014017 13 0.0 3.2 0.00 0.43 0.43 91 1011.0
20260510013517 13 0.0 1.6 0.00 0.43 0.43 91 1011.0
20260510013017 13 0.0 1.6 0.00 0.43 0.43 91 1011.0
20260510012518 13 0.0 1.6 0.00 0.43 0.43 91 1011.0
20260510012018 13 0.0 3.2 0.00 0.43 0.43 91 1010.9
20260510011517 13 113 1.6 3.2 0.00 0.43 0.43 91 1010.9
20260510011017 13 113 1.6 4.8 0.00 0.43 0.43 91 1010.9
20260510010517 13 0.0 3.2 0.00 0.43 0.43 91 1010.8
20260510010016 13 0.0 3.2 0.00 0.43 0.43 91 1010.7
20260510005517 13 113 1.6 6.4 0.00 0.43 0.43 90 1010.7
20260510005017 13 90 1.6 3.2 0.00 0.43 0.43 90 1010.6
20260510004517 13 0.0 4.8 0.00 0.43 0.43 90 1010.6
20260510004016 13 0.0 4.8 0.00 0.43 0.43 90 1010.6
20260510003518 13 0.0 3.2 0.00 0.43 0.43 90 1010.6
20260510003038 13 0.0 3.2 0.00 0.43 0.43 90 1010.6
20260510002517 13 0.0 1.6 0.00 0.43 0.43 90 1010.7
20260510002017 13 0.0 4.8 0.00 0.43 0.43 90 1010.6
20260510001518 13 113 1.6 4.8 0.00 0.43 0.43 90 1010.5
20260510001016 13 0.0 3.2 0.00 0.43 0.43 90 1010.5
20260510000517 13 0.0 3.2 0.00 0.43 0.43 90 1010.4
20260510000016 14 0.0 3.2 0.00 0.43 0.43 90 1010.5
20260509235538 14 0.0 1.6 0.00 0.43 0.43 90 1010.4
20260509235017 14 0.0 1.6 0.00 0.43 0.43 90 1010.4
20260509234538 14 0.0 1.6 0.00 0.43 0.43 89 1010.3
20260509234016 14 113 1.6 4.8 0.00 0.43 0.43 89 1010.2
20260509233516 14 113 3.2 8.0 0.03 0.43 0.43 89 1010.1
20260509233017 14 68 1.6 6.4 0.05 0.43 0.43 89 1010.1
20260509232516 15 68 1.6 3.2 0.10 0.43 0.43 89 1010.2
20260509232057 15 68 1.6 4.8 0.13 0.43 0.43 89 1010.2
20260509231516 15 113 1.6 6.4 0.18 0.43 0.43 89 1010.2
20260509231016 15 90 3.2 6.4 0.18 0.43 0.43 89 1010.3
20260509230517 15 113 3.2 9.7 0.20 0.43 0.43 89 1010.3
20260509230017 15 113 3.2 8.0 0.23 0.43 0.43 88 1010.3
20260509225718 15 113 1.6 6.4 0.28 0.43 0.43 88 1010.5
20260509225016 15 0.0 3.2 0.33 0.43 0.43 88 1010.6
20260509224708 15 0.0 4.8 0.33 0.43 0.43 87 1010.8
20260509223017 15 68 1.6 6.4 0.28 0.38 0.38 85 1010.7
20260509222517 15 0.0 3.2 0.23 0.33 0.33 85 1011.1
20260509222016 15 0.0 3.2 0.20 0.30 0.30 84 1011.4
20260509221536 15 0.0 1.6 0.15 0.25 0.25 84 1011.3
20260509221016 15 0.0 0.0 0.15 0.25 0.25 83 1011.0
20260509220516 15 0.0 3.2 0.13 0.23 0.23 83 1010.9
20260509220016 15 23 1.6 4.8 0.10 0.20 0.20 82 1010.8
20260509215516 15 315 4.8 14.5 0.05 0.15 0.15 82 1011.4
20260509215016 15 315 3.2 9.7 0.00 0.10 0.10 82 1011.5
20260509214517 15 0.0 3.2 0.00 0.10 0.10 82 1010.8
20260509214017 15 23 1.6 6.4 0.00 0.10 0.10 82 1010.6
20260509213517 15 68 1.6 9.7 0.00 0.10 0.10 82 1010.5
20260509213018 15 68 1.6 6.4 0.00 0.10 0.10 82 1010.5
20260509212516 15 0 1.6 6.4 0.00 0.10 0.10 82 1011.0
20260509212036 15 45 1.6 4.8 0.00 0.10 0.10 82 1011.0
20260509211516 15 0 1.6 6.4 0.00 0.10 0.10 83 1011.0
20260509211016 15 23 1.6 6.4 0.00 0.10 0.10 82 1010.9
20260509210518 15 45 1.6 9.7 0.00 0.10 0.10 82 1010.8
20260509210017 15 45 3.2 8.0 0.00 0.10 0.10 82 1010.7
20260509205516 15 338 1.6 6.4 0.00 0.10 0.10 82 1010.8
20260509205017 15 0 1.6 4.8 0.00 0.10 0.10 82 1011.0
20260509204517 15 0 3.2 12.9 0.00 0.10 0.10 82 1011.1
20260509204036 15 338 3.2 9.7 0.00 0.10 0.10 82 1011.0
20260509203536 15 293 3.2 11.3 0.00 0.10 0.10 82 1011.0
20260509203016 15 338 3.2 12.9 0.00 0.10 0.10 82 1011.0
20260509202516 15 0 3.2 9.7 0.00 0.10 0.10 83 1010.9
20260509202016 15 338 1.6 8.0 0.00 0.10 0.10 83 1010.9
20260509201516 15 338 3.2 8.0 0.00 0.10 0.10 83 1011.0
20260509201016 16 293 1.6 6.4 0.00 0.10 0.10 83 1011.1
20260509200516 16 0.0 0.0 0.00 0.10 0.10 84 1011.0
20260509200016 16 0.0 1.6 0.00 0.10 0.10 84 1011.0
20260509195517 16 0.0 0.0 0.00 0.10 0.10 84 1011.2
20260509195016 16 225 1.6 4.8 0.00 0.10 0.10 84 1011.4
20260509194516 16 0.0 4.8 0.00 0.10 0.10 84 1011.4
20260509194016 16 0.0 3.2 0.03 0.10 0.10 84 1011.3
20260509193516 16 0.0 4.8 0.05 0.10 0.10 84 1011.2
20260509193016 16 135 1.6 6.4 0.05 0.10 0.10 84 1011.1
20260509192516 16 135 1.6 6.4 0.05 0.10 0.10 85 1011.1
20260509192016 16 113 1.6 4.8 0.05 0.10 0.10 85 1011.0
20260509191516 16 0.0 6.4 0.08 0.10 0.10 84 1010.9
20260509191016 16 135 1.6 4.8 0.08 0.10 0.10 84 1010.9
20260509190536 16 113 1.6 6.4 0.08 0.10 0.10 84 1010.9
20260509190016 16 113 3.2 8.0 0.08 0.10 0.10 83 1010.9
20260509185516 16 113 1.6 4.8 0.08 0.10 0.10 83 1011.1
20260509185016 16 0.0 3.2 0.08 0.10 0.10 82 1011.0
20260509184516 16 338 1.6 4.8 0.08 0.10 0.10 82 1011.1
20260509184016 16 248 1.6 6.4 0.05 0.08 0.08 81 1012.0
20260509183537 16 270 3.2 8.0 0.03 0.05 0.05 81 1012.0
20260509183037 16 248 3.2 16.1 0.03 0.05 0.05 80 1011.6
20260509182516 16 135 1.6 8.0 0.03 0.05 0.05 80 1011.2
20260509182037 16 135 3.2 12.9 0.03 0.05 0.05 80 1011.5
20260509181516 16 0.0 3.2 0.00 0.03 0.03 81 1011.5
20260509181018 16 0.0 1.6 0.00 0.03 0.03 80 1011.1
20260509180517 16 0.0 0.0 0.00 0.03 0.03 81 1010.8
20260509180016 16 0.0 3.2 0.03 0.03 0.03 81 1010.6
20260509175516 16 0.0 4.8 0.03 0.03 0.03 81 1010.6
20260509175016 16 113 1.6 8.0 0.03 0.03 0.03 81 1010.9
20260509174516 16 113 4.8 17.7 0.03 0.03 0.03 81 1010.8
20260509174038 16 113 1.6 4.8 0.03 0.03 0.03 82 1011.0
20260509173537 16 135 1.6 6.4 0.03 0.03 0.03 82 1011.0
20260509173016 16 135 1.6 6.4 0.03 0.03 0.03 81 1011.0
20260509172516 16 135 1.6 6.4 0.03 0.03 0.03 81 1010.9
20260509172017 16 113 4.8 9.7 0.03 0.03 0.03 80 1010.9
20260509171537 16 113 3.2 8.0 0.03 0.03 0.03 79 1010.9
20260509171017 16 113 6.4 12.9 0.03 0.03 0.03 77 1011.1
20260509170516 16 135 4.8 12.9 0.03 0.03 0.03 75 1011.2
20260509170016 17 113 4.8 12.9 0.00 0.00 0.00 73 1011.1
20260509165517 17 113 8.0 17.7 0.00 0.00 0.00 71 1011.2
20260509165016 18 113 4.8 16.1 0.00 0.00 0.00 69 1011.2
20260509164516 18 113 3.2 12.9 0.00 0.00 0.00 67 1011.0
20260509164016 18 135 3.2 6.4 0.00 0.00 0.00 66 1011.1
20260509163516 18 135 1.6 4.8 0.00 0.00 0.00 64 1011.2
20260509163017 18 113 1.6 4.8 0.00 0.00 0.00 64 1011.2
20260509162516 18 113 3.2 9.7 0.00 0.00 0.00 63 1011.3
20260509162036 18 113 3.2 6.4 0.00 0.00 0.00 64 1011.4